Pompano Beach, FL

3:54 AM EST on February 21, 2017 (GMT -0500)
Pompano Beach

Weather History for KPMP - November, 2012

Change the Weather History Date:

Wednesday, November 21, 2012

  Actual Average Record
Temperature  
Mean Temperature 65 °F -  
Max Temperature 73 °F 81 °F 87 °F (1948)
Min Temperature 57 °F 64 °F 45 °F (1968)
Growing Degree Days 15 (Base 50)    
Moisture  
Dew Point 57 °F    
Average Humidity 79    
Maximum Humidity 100    
Minimum Humidity 51    
Precipitation  
Precipitation 0.00 in - - ()
Sea Level Pressure  
Sea Level Pressure 29.98 in    
Wind  
Wind Speed 11 mph (NW)    
Max Wind Speed 17 mph    
Max Gust Speed 22 mph    
Visibility 10 miles    
Events      
Averages and records for this station are not official NWS values.
T = Trace of Precipitation, MM = Missing Value Source: NWS Daily Summary

Daily Weather History Graph

Daily Weather History Graph

Search for Another Location

Airport or City:

Trip Planner

Search our weather history database for the weather conditions in past years. The results will help you decide how hot, cold, wet, or windy it might be!

Date:

Astronomy

Nov. 21, 2012 Rise Set
Actual Time 6:43 AM EST 5:28 PM EST
Civil Twilight 6:19 AM EST 5:53 PM EST
Nautical Twilight 5:51 AM EST 6:21 PM EST
Astronomical Twilight 5:23 AM EST 6:49 PM EST
Moon 1:12 PM EST 12:36 AM EST
Length of Visible Light 11h 34m
Length of Day
10h 44m
First Quarter, 61% of the Moon is Illuminated
Nov 21
First Quarter
Nov 28
Full
Dec 6
Last Quarter
Dec 13
New
Dec 20
First Quarter

Hourly Weather History & Observations

Time (EST) Temp. Dew Point Humidity Pressure Visibility Wind Dir Wind Speed Gust Speed Precip Events Conditions
12:53 AM 63.0 °F 62.1 °F 97% 29.97 in 10.0 mi NW 8.1 mph - N/A   Mostly Cloudy
1:53 AM 61.0 °F 61.0 °F 100% 29.96 in 10.0 mi NNW 9.2 mph - N/A   Mostly Cloudy
2:53 AM 60.1 °F 60.1 °F 100% 29.95 in 10.0 mi NW 9.2 mph - N/A   Clear
3:53 AM 59.0 °F 59.0 °F 100% 29.96 in 10.0 mi NW 9.2 mph - N/A   Partly Cloudy
4:53 AM 57.9 °F 57.9 °F 100% 29.96 in 10.0 mi WNW 8.1 mph - N/A   Clear
5:53 AM 57.9 °F 57.9 °F 100% 29.97 in 10.0 mi NW 10.4 mph - N/A   Clear
6:53 AM 57.9 °F 57.9 °F 100% 29.99 in 10.0 mi WNW 8.1 mph - N/A   Clear
7:53 AM 61.0 °F 60.1 °F 97% 29.99 in 10.0 mi NW 10.4 mph - N/A   Clear
8:53 AM 64.0 °F 60.1 °F 87% 30.00 in 10.0 mi NW 12.7 mph - N/A   Clear
9:53 AM 66.9 °F 60.1 °F 79% 30.01 in 10.0 mi NNW 11.5 mph - N/A   Clear
10:53 AM 71.1 °F 61.0 °F 70% 29.99 in 10.0 mi NW 12.7 mph - N/A   Clear
11:53 AM 73.0 °F 60.1 °F 64% 29.98 in 10.0 mi NNW 12.7 mph - N/A   Partly Cloudy
12:53 PM 73.9 °F 60.1 °F 62% 29.95 in 10.0 mi NNW 16.1 mph - N/A   Partly Cloudy
1:53 PM 73.9 °F 57.0 °F 55% 29.93 in 10.0 mi WNW 15.0 mph - N/A   Partly Cloudy
2:53 PM 73.0 °F 55.9 °F 55% 29.93 in 10.0 mi WNW 17.3 mph - N/A   Partly Cloudy
3:53 PM 73.0 °F 54.0 °F 51% 29.94 in 10.0 mi NNW 13.8 mph 21.9 mph N/A   Clear
4:53 PM 71.1 °F 53.1 °F 53% 29.95 in 10.0 mi NNW 13.8 mph - N/A   Clear
5:53 PM 66.9 °F 54.0 °F 63% 29.97 in 10.0 mi North 10.4 mph - N/A   Clear
6:53 PM 64.9 °F 53.1 °F 65% 29.99 in 10.0 mi North 11.5 mph - N/A   Clear
7:53 PM 63.0 °F 53.1 °F 70% 30.01 in 10.0 mi North 11.5 mph - N/A   Clear
8:53 PM 62.1 °F 54.0 °F 75% 30.02 in 10.0 mi NNW 11.5 mph - N/A   Clear
9:53 PM 61.0 °F 54.0 °F 78% 30.04 in 10.0 mi NNW 13.8 mph - N/A   Clear
10:53 PM 60.1 °F 54.0 °F 80% 30.04 in 10.0 mi NNW 11.5 mph - N/A   Clear
11:53 PM 59.0 °F 54.0 °F 83% 30.04 in 10.0 mi NNW 11.5 mph - N/A   Clear